Tracking 29892 objects as of 21-Nov-2024
HD Live streaming from Space Station
objects crossing your sky now

ONEWEB-0640

Track ONEWEB-0640 now!
10-day predictions
ONEWEB-0640 is classified as:


NORAD ID: 55804
Int'l Code: 2023-029J
Perigee: 1,211.1 km
Apogee: 1,214.8 km
Inclination: 87.9 °
Period: 109.5 minutes
Semi major axis: 7583 km
RCS: Unknown
Launch date: March 9, 2023
Source: United Kingdom (UK)
Launch site: AIR FORCE EASTERN TEST RANGE (AFETR)
Your satellite tracking list
Your tracking list is empty




NASA's NSSDC Master Catalog

Two Line Element Set (TLE):
1 55804U 23029J   24325.17002223 -.00000081  00000-0 -25385-3 0  9998
2 55804  87.9033  43.8989 0002481  90.2321 269.9093 13.14500952 84007
Source of the keplerian elements: AFSPC